Location: Augirein
(42.9320°N, 0.9181°E)
Time: 22:48:38
(UTC+00:00)

BREEZE-M DEB (TANK) - Visible Passes

Search period start: 23 October 2021 00:00
Search period end: 02 November 2021 00:00
Orbit: 356 x 16547 km, 49.4° (Epoch: 22 October)

Date Brightness Start Highest point End Pass type
(mag) Time Alt. Az. Time Alt. Az. Time Alt. Az.
23 Oct 8.2 04:40:23 10° S 07:04:17 70° SE 07:34:08 10° ENE visible
24 Oct 9.8 01:44:31 10° ESE 02:36:34 17° E 03:06:41 10° ENE visible
24 Oct 7.8 05:44:17 10° SSW 08:11:09 84° SE 08:34:44 10° ENE visible
25 Oct 9.5 02:01:39 10° SE 03:36:59 31° ESE 04:16:22 10° ENE visible
26 Oct 9.1 02:38:06 10° SSE 04:40:16 45° ESE 05:20:12 10° ENE visible
27 Oct 8.7 03:27:16 10° S 05:46:00 60° ESE 06:22:07 10° ENE visible
28 Oct 8.2 04:25:11 10° S 06:53:10 74° SE 07:23:07 10° ENE visible
29 Oct 9.7 01:14:26 10° ESE 02:23:20 21° E 02:59:07 10° ENE visible
29 Oct 7.8 05:30:42 10° SSW 08:00:18 88° SE 08:23:41 10° ENE visible
30 Oct 9.4 01:38:10 10° SE 03:24:13 35° ESE 04:06:12 10° ENE visible
31 Oct 9.0 02:18:53 10° SSE 04:28:00 50° ESE 05:09:22 10° ENE visible
01 Nov 8.6 03:10:44 10° S 05:34:16 65° SE 06:11:01 10° ENE visible
